Weather History for Cape Girardeau, MO

Change the Weather History Date:

Monday, September 1, 2014

  Actual Average Record
Temperature  
Mean Temperature 80 °F 74 °F  
Max Temperature 86 °F 86 °F 97 °F (1980)
Min Temperature 74 °F 62 °F 49 °F (1967)
Degree Days  
Heating Degree Days 0 0  
Month to date heating degree days 0 0  
Since 1 July heating degree days 0 1  
Cooling Degree Days 15 9  
Month to date cooling degree days 15 9  
Year to date cooling degree days 1254 1269  
Growing Degree Days 30 (Base 50)    
Moisture  
Dew Point 72 °F    
Average Humidity 80    
Maximum Humidity 94    
Minimum Humidity 65    
Precipitation  
Precipitation 0.00 in 0.11 in 1.48 in (2012)
Month to date precipitation 0.00 0.11  
Year to date precipitation 32.30 31.16  
Sea Level Pressure  
Sea Level Pressure 29.94 in    
Wind  
Wind Speed 12 mph (SSW)    
Max Wind Speed 22 mph    
Max Gust Speed 31 mph    
Visibility 10 miles    
Events      
T = Trace of Precipitation, MM = Missing Value Source: NWS Daily Summary

Daily Weather History Graph

Daily Weather History Graph

Search for Another Location

Airport:

Trip Planner

Search our weather history database for the weather conditions in past years. The results will help you decide how hot, cold, wet, or windy it might be!

Date:

Astronomy

Sep. 01, 2014 Rise Set
Actual Time 6:28 AM CDT 7:26 PM CDT
Civil Twilight 6:02 AM CDT 7:53 PM CDT
Nautical Twilight 5:30 AM CDT 8:25 PM CDT
Astronomical Twilight 4:57 AM CDT 8:57 PM CDT
Moon 1:05 PM CDT (9/1) 11:37 PM CDT (9/1)
Length of Visible Light 13h 51m
Length of Day
12h 58m
Waxing Crescent, 42% of the Moon is Illuminated
Sep 1
Waxing Crescent
Sep 2
First Quarter
Sep 8
Full
Sep 15
Last Quarter
Sep 24
New

Hourly Weather History & Observations

Time (CDT) Temp. Heat Index Dew Point Humidity Pressure Visibility Wind Dir Wind Speed Gust Speed Precip Events Conditions
12:53 AM 77.0 °F - 72.0 °F 84% 29.94 in 10.0 mi South 9.2 mph - N/A   Mostly Cloudy
1:53 AM 75.0 °F - 72.0 °F 90% 29.95 in 10.0 mi South 8.1 mph - N/A   Clear
2:53 AM 75.0 °F - 72.0 °F 90% 29.94 in 10.0 mi South 12.7 mph - N/A   Clear
3:53 AM 75.0 °F - 72.0 °F 90% 29.94 in 10.0 mi South 10.4 mph - N/A   Mostly Cloudy
4:12 AM 75.0 °F - 72.0 °F 90% 29.94 in 10.0 mi South 16.1 mph 24.2 mph N/A   Mostly Cloudy
4:31 AM 75.0 °F - 72.0 °F 90% 29.94 in 10.0 mi South 9.2 mph 20.7 mph N/A   Mostly Cloudy
4:53 AM 75.0 °F - 72.0 °F 90% 29.94 in 10.0 mi SSW 15.0 mph - N/A   Overcast
5:53 AM 73.9 °F - 72.0 °F 93% 29.96 in 10.0 mi SSW 10.4 mph - N/A   Overcast
6:53 AM 75.0 °F - 72.0 °F 90% 29.97 in 10.0 mi SSW 9.2 mph - N/A   Overcast
7:25 AM 75.9 °F - 73.0 °F 91% 29.98 in 10.0 mi SSW 13.8 mph 19.6 mph N/A   Mostly Cloudy
7:36 AM 75.9 °F - 73.0 °F 91% 29.99 in 10.0 mi SSW 12.7 mph 20.7 mph N/A   Mostly Cloudy
7:53 AM 75.9 °F - 73.0 °F 91% 29.98 in 10.0 mi SSW 12.7 mph 23.0 mph N/A   Mostly Cloudy
8:31 AM 77.0 °F - 73.0 °F 88% 29.98 in 10.0 mi SW 15.0 mph 25.3 mph N/A   Scattered Clouds
8:53 AM 78.1 °F - 73.0 °F 84% 29.96 in 10.0 mi SSW 13.8 mph - N/A   Scattered Clouds
9:24 AM 79.0 °F - 73.0 °F 82% 29.97 in 10.0 mi WSW 15.0 mph - N/A   Mostly Cloudy
9:53 AM 78.8 °F - 71.6 °F 78% 29.97 in 10.0 mi SW 13.8 mph - N/A   Overcast
10:14 AM 78.1 °F - 72.0 °F 81% 29.97 in 10.0 mi SW 11.5 mph 19.6 mph N/A   Overcast
10:34 AM 79.0 °F - 72.0 °F 79% 29.98 in 10.0 mi SW 15.0 mph 23.0 mph N/A   Mostly Cloudy
10:53 AM 79.0 °F - 72.0 °F 79% 29.96 in 10.0 mi SW 16.1 mph 21.9 mph N/A   Partly Cloudy
11:53 AM 82.0 °F 87.4 °F 73.0 °F 74% 29.96 in 10.0 mi SW 15.0 mph - N/A   Scattered Clouds
12:53 PM 82.9 °F 87.0 °F 70.0 °F 65% 29.91 in 10.0 mi SSW 15.0 mph 26.5 mph N/A   Clear
1:53 PM 81.0 °F 83.8 °F 68.0 °F 65% 29.88 in 10.0 mi SSW 18.4 mph 25.3 mph N/A   Scattered Clouds
2:53 PM 82.0 °F 86.3 °F 71.1 °F 69% 29.90 in 10.0 mi SSW 12.7 mph 21.9 mph N/A   Partly Cloudy
3:53 PM 86.0 °F 93.8 °F 73.9 °F 67% 29.91 in 10.0 mi WSW 15.0 mph 23.0 mph N/A   Scattered Clouds
4:53 PM 84.9 °F 91.4 °F 73.0 °F 67% 29.91 in 10.0 mi SW 13.8 mph - N/A   Partly Cloudy
5:53 PM 84.0 °F 91.2 °F 73.9 °F 72% 29.91 in 10.0 mi SW 6.9 mph - N/A   Scattered Clouds
6:53 PM 82.9 °F 89.4 °F 73.9 °F 74% 29.91 in 10.0 mi South 5.8 mph - N/A   Mostly Cloudy
7:53 PM 80.1 °F 84.2 °F 73.0 °F 79% 29.90 in 10.0 mi South 8.1 mph - N/A   Partly Cloudy
8:53 PM 80.1 °F 83.8 °F 72.0 °F 76% 29.92 in 10.0 mi South 6.9 mph - N/A   Mostly Cloudy
9:53 PM 78.1 °F - 72.0 °F 81% 29.91 in 10.0 mi SSE 8.1 mph - N/A   Clear
10:53 PM 78.1 °F - 72.0 °F 81% 29.91 in 10.0 mi South 9.2 mph - N/A   Clear
11:53 PM 79.0 °F - 72.0 °F 79% 29.93 in 10.0 mi South 9.2 mph - N/A   Clear